Regional Weather Roundup
Issued by NWS Wakefield, VA

Home | Current Version | Previous Version | Graphics & Text | Print | Product List | Glossary On
Versions: 1 2 3 4 5 6 7 8 9 10 11 12 13 14 15 16 17 18 19 20 21 22 23 24 25 26 27 28 29 30 31 32 33 34 35 36 37 38 39 40 41 42 43 44 45 46 47 48 49 50
636
ASUS41 KAKQ 280715
RWRAKQ

REGIONAL WEATHER ROUNDUP
NATIONAL WEATHER SERVICE WAKEFIELD VA
300 AM EDT SAT MAY 28 2016

Note: "fair" indicates few or no clouds below 12,000 feet with no
significant weather and/or obstructions to visibility. * = Denotes
station may not report precipitation (e.g., rain,snow,etc.),
thunder or fog.

VAZ042-051-052>054-056-280800-
NORTHERN VIRGINIA

CITY           SKY/WX    TMP DP  RH WIND       PRES   REMARKS
WASH NATIONAL  FAIR      73  67  81 S10       30.09
DULLES         FAIR      73  66  78 S8        30.08F
FORT BELVOIR   FAIR      71  65  82 SE3       30.09F
QUANTICO       FAIR      74  64  71 SW9       30.10F
FREDERICKSBRG* FAIR      73  63  71 S5        30.09S
STAFFORD*      FAIR      71  61  70 S3        30.14S
WARRENTON      FAIR      73  62  68 S6        30.09F
CULPEPER*      FAIR      73  67  83 S3        30.10F
MANASSAS*      FAIR      72  66  83 S5        30.09S
LEESBURG*      FAIR      72  70  94 SW5       30.10R
WINCHESTER     FAIR      68  64  88 SW3       30.09F
FRONT ROYAL*   FAIR      66  64  94 S3        30.09S
LURAY*         FAIR      64  64 100 CALM      30.11F
$$

VAZ048-049-060>072-079>083-280800-
CENTRAL AND SOUTH CENTRAL VIRGINIA

CITY           SKY/WX    TMP DP  RH WIND       PRES   REMARKS
RICHMOND       FAIR      66  60  81 S5        30.13S
CHESTERFIELD*  FAIR      66  52  59 S5        30.14F
PETERSBURG*    FAIR      66  61  84 CALM      30.14S
HANOVER        FAIR      70  57  63 S8        30.13F
TAPPAHANNOCK*  FAIR      69  58  67 S5        30.13S
QUINTON*       FAIR      68  61  76 CALM      30.13S
CHARLOTTSVILLE FAIR      70  65  84 S6        30.11S
GORDONSVILLE*  FAIR      68  66  92 SW5       30.11R
ORANGE*        FAIR      70  68  94 NE6       30.13S
LOUISA*        FAIR      73  66  78 CALM      30.11R
BUMPASS*       FAIR      69  61  75 CALM      30.11F
FARMVILLE*     FAIR      68  61  78 SW5       30.11S
CREWE*         FAIR      66  64  93 CALM      30.13S
FORT PICKETT*  NOT AVBL
CHASE CITY*    FAIR      65  62  91 CALM      30.14S
CLARKSVILLE*   FAIR      63  61  94 CALM      30.14R
SOUTH HILL*    FAIR      62  58  87 S3        30.20S
LAWRENCEVILLE* FAIR      64  61  90 CALM      30.14S
EMPORIA*         N/A     61  59  94 CALM      30.16S
$$

VAZ088>098-280800-
SOUTHEAST VIRGINIA

CITY           SKY/WX    TMP DP  RH WIND       PRES   REMARKS
NORFOLK        FAIR      66  62  87 S5        30.15S
VIRGINIA BEACH FAIR      66  59  78 CALM      30.14S
NORFOLK NAVAL  FAIR      69  62  78 S7        30.16S
WEST POINT*    FAIR      69  58  66 S3        30.15S
SALUDA*        FAIR      69  62  79 S3        30.13S
NEWPORT NEWS   FAIR      69  62  78 S7        30.14F
LANGLEY AFB    FAIR      69  62  80 S9        30.14F
FORT EUSTIS    FAIR      69  60  72 S6        30.12F
WILLIAMSBURG*  FAIR      70  63  78 S7        30.15S
HR EXEC AP*      N/A     57  54  88 CALM      30.17S
FRANKLIN*      FAIR      64  59  83 SE3       30.15F
US460-WAKEFLD  FAIR      67  60  78 S3        30.14F
$$

VAZ020-022-025-037-045-280800-
WEST CENTRAL AND SOUTHWEST VIRGINIA

CITY           SKY/WX    TMP DP  RH WIND       PRES   REMARKS
STAUNTON*      FOG       62  62 100 CALM      30.16R VSB 1/2
WAYNESBORO*    FAIR      64  63  96 CALM      30.15R
HOT SPRINGS VA FAIR      64  64  99 W10       30.23F
LYNCHBURG      FAIR      67  63  87 S6        30.15S
DANVILLE       FAIR      64  59  83 CALM      30.14S
SOUTH BOSTON*  FAIR      62  60  95 S3        30.14S
MARTINSVILLE   FAIR      58  58 100 CALM      30.17S FOG
ROANOKE        FAIR      67  64  90 W3        30.15F
BLACKSBURG     FAIR      62  62  98 CALM      30.21F
DUBLIN*        FAIR      63  63 100 NW3       30.19F FOG
MARION*        MOCLDY    59  58  96 CALM      30.22S FOG
HILLSVILLE*    FAIR      64  61  90 S5        30.19F
RICHLANDS*     FAIR      68  66  95 S3        30.18F
WISE*          FAIR      66  55  68 S9        30.18S
ABINGDON*      FAIR      64  63  97 CALM      30.16S
$$

MDZ021>025-VAZ099-100-280800-
SOUTHERN MARYLAND AND THE DELMARVA PENINSULA

CITY           SKY/WX    TMP DP  RH WIND       PRES   REMARKS
PATUXENT RIVER CLEAR     70  59  68 S5        30.11S
BAY BRIDGE APT CLEAR     72  63  73 S8        30.09F
LEONARDTOWN    CLEAR     70  57  64 SW5       30.13S
DOVER          CLEAR     71  65  81 S12       30.09F
GEORGETOWN     CLEAR     68  61  78 S9        30.13F
EASTON         CLEAR     73  66  80 SW9       30.14F
CAMBRIDGE      CLEAR     68  63  83 CALM      30.12S
SALISBURY      CLEAR     67  61  81 S3        30.13F
OCEAN CITY     CLEAR     69  62  78 SW8       30.14S
WALLOPS ISLAND FAIR      67  62  84 S9        30.15S
ACCOMACK*      FAIR      68  61  77 S7        30.14S
$$

NCZ012>017-030>032-280800-
NORTH CENTRAL AND EASTERN NORTH CAROLINA

CITY           SKY/WX    TMP DP  RH WIND       PRES   REMARKS
ROANOKE RAPIDS FAIR      63  59  88 S3        30.15S
RALEIGH        CLEAR     64  58  80 CALM      30.15S
ELIZABETH CITY CLEAR     63  61  93 CALM      30.15S
AHOSKIE*       CLEAR     59  58  97 CALM      30.16S FOG
EDENTON*       CLEAR    N/A N/A N/A CALM      30.16S
CURRITUCK*     CLEAR     64  64  99 CALM      30.16S
KILL DEVIL HLS CLEAR     64  61  92 CALM      30.14F FOG
MANTEO         NOT AVBL
CAPE HATTERAS  PTCLDY    73  68  84 SE8       30.14F
TARBORO*       FAIR      58  58  98 CALM      30.16S FOG
GOLDSBORO      CLOUDY    59  59 100 E1        30.13S
WASHINGTON     CLEAR     60  58  94 CALM      30.15S
GREENVILLE     CLEAR     59  59 100 CALM      30.16S
NEW BERN       CLEAR     63  60  90 CALM      30.15S
WILMINGTON     PTCLDY    65  63  93 NE5       30.11F
$$

VAZ048-280800-
ELSEWHERE

CITY           SKY/WX    TMP DP  RH WIND       PRES   REMARKS
HARRISBURG PA  PTCLDY    70  66  87 CALM      30.08R
BALTIMORE      PTCLDY    71  64  78 CALM      30.08S
ANNAPOLIS      CLEAR     69  64  84 S3        30.09F
ANDREWS AFB    FAIR      72  64  75 S9        30.09S
PHILADELPHIA   PTCLDY    70  58  65 S7        30.11R
HENDERSON NC   CLEAR     63  56  78 S6        30.15S
GREENSBORO     CLEAR     67  61  81 S3        30.14F
ROCKY MOUNT    CLEAR     59  58  96 CALM      30.15F
$$

VAZ100-280800-
MARINE

STATION/POSITION TIME  TEMP    WIND        PRES    WAVE   SWELL
                       AIR SEA DIR/SP/G            HT/PER HT/PER
                 (UTC) (F)     (DEG/KT/KT) (MB)    (FT/S) (FT/S)
BRANDYWINE LGT   0600   69                 1019.9F
CAPE MAY NJ      0600   68 68              1019.9F
LEWES DE         0600   71 62              1020.0S
15NM E FENWICK I 0650   64 60              1020.5F   2/ 4
OCEAN-CITY-INLET 0600   63 58              1021.0F
WACHAPREAGUE VA  0600   70 74              1020.5F
THOMAS POINT MD  0700   70 66  170/ 15/ 16 1020.1F
GOOSES REEF MD   0700   70 67  180/ 10/ 12 1020.3F   1/ 2
COVE POINT MD    0600   69                 1020.3S
SOLOMONS ISLAND  0612   72 67                N/A
BISHOPS HEAD MD  0600   72 75              1020.1F
PINEY POINT MD   0624          200/  5/  6   N/A
POTOMAC MD       0700   69 67  220/  8/  8 1019.0F   1/ 3
CAMBRIDGE MD     0600   71 65              1019.0S
LEWISETTA VA     0600   72 74              1019.5F
RAPPAHANNOCK LGT 0600                      1021.2F
STINGRAY PT      0600   70 68  190/ 10/ 10 1020.8F   1/ 3
YORK RVR RNG VA  0600   72                 1020.1F
YORKTOWN VA      0600   71 67              1020.5R
JAMESTOWN VA     0700   69 72  160/  4/  8   N/A     0
DOMINION TERM VA 0600   70                 1021.0F
KIPTOPEKE VA     0600      69                N/A
CHES BAY BRIDGE  0600   70 62              1020.9F
CAPE HENRY VA    0600   69                   N/A
CHESAPEAKE LGHT  0600   69     180/ 12/ 13 1021.8R
WILLOUBY STN VA  0600   71                 1021.8F
CAPE HENRY BUOY  0612      67                N/A     2/ 8
1ST LANDING BUOY 0700   68 67  180/  6/  6 1020.8F   1
CAPE CHARLES BUO 0626      66                N/A     2/ 8   2/ 8
OFFSHORE WE BUOY 0621      67                N/A     2/ 7   2/ 7
64NM E OF VA BCH 0650   66 61  190/  6/  6 1020.9F   3/ 8   2/ 8
DUCK PIER NC     0600   65 59              1020.4F
44100 DUCK FRF   0624      66                N/A     2/ 8
44056 DUCK FRF   0611      63                N/A     2/ 7
OREGON INLET NC  0600   67 79              1021.0F
HATTERAS NC      0600   74 74              1020.3F
DIAMOND SHLS NC  0650   76 78  120/ 14/ 16 1020.2F   4/ 8   2/ 8
CAPE LOOC1F1C2F2C3F3C4F4C5F5C6F6C7F7C8M1C9!



USA.gov is the U.S. government's official web portal to all federal, state and local government web resources and services.